Time,TemperatureF,DewpointF,PressureIn,WindDirection,WindDirectionDegrees,WindSpeedMPH,WindSpeedGustMPH,Humidity,HourlyPrecipIn,Conditions,Clouds,dailyrainin,SoftwareType,DateUTC
2013-11-27 00:02:00,42.3,38.1,29.99,ESE,121,0.0,0.0,85,0.00,,CLR,0.00,VWS V14.01,2013-11-27 08:02:00,
2013-11-27 00:07:00,42.3,38.1,29.96,ESE,121,0.0,0.0,85,0.00,,CLR,0.00,VWS V14.01,2013-11-27 08:07:00,
2013-11-27 00:12:00,42.3,38.4,29.96,ESE,121,0.0,0.0,86,0.00,,CLR,0.00,VWS V14.01,2013-11-27 08:12:00,
2013-11-27 00:17:00,42.4,38.8,29.96,ESE,120,0.0,0.0,87,0.00,,CLR,0.00,VWS V14.01,2013-11-27 08:17:00,
2013-11-27 00:22:00,42.3,38.7,29.96,ESE,121,0.0,0.0,87,0.00,,CLR,0.00,VWS V14.01,2013-11-27 08:22:00,
2013-11-27 00:27:00,41.5,38.0,29.96,ESE,121,0.0,0.0,87,0.00,,CLR,0.00,VWS V14.01,2013-11-27 08:27:00,
2013-11-27 00:32:00,41.7,38.1,29.96,ESE,121,0.0,0.0,87,0.00,,CLR,0.00,VWS V14.01,2013-11-27 08:32:00,
2013-11-27 00:37:00,41.5,38.3,29.96,ESE,121,0.0,0.0,88,0.00,,CLR,0.00,VWS V14.01,2013-11-27 08:37:00,
2013-11-27 00:42:00,41.2,37.6,29.96,ESE,121,0.0,0.0,87,0.00,,CLR,0.00,VWS V14.01,2013-11-27 08:42:00,
2013-11-27 00:47:00,41.4,38.1,29.96,ESE,121,0.0,0.0,88,0.00,,CLR,0.00,VWS V14.01,2013-11-27 08:47:00,
2013-11-27 00:53:00,41.0,37.7,29.96,ESE,121,0.0,0.0,88,0.00,,CLR,0.00,VWS V14.01,2013-11-27 08:53:00,
2013-11-27 00:58:00,41.2,38.2,29.96,ESE,121,0.0,0.0,89,0.00,,CLR,0.00,VWS V14.01,2013-11-27 08:58:00,
2013-11-27 01:03:00,41.0,37.7,29.96,ESE,121,0.0,0.0,88,0.00,,FEW200,0.00,VWS V14.01,2013-11-27 09:03:00,
2013-11-27 01:08:00,41.0,38.0,29.96,ESE,120,0.0,0.0,89,0.00,,FEW200,0.00,VWS V14.01,2013-11-27 09:08:00,
2013-11-27 01:13:00,41.2,38.5,29.96,ESE,121,0.0,0.0,90,0.00,,FEW200,0.00,VWS V14.01,2013-11-27 09:13:00,
2013-11-27 01:18:00,41.7,39.3,29.96,ESE,121,0.0,0.0,91,0.00,,FEW200,0.00,VWS V14.01,2013-11-27 09:18:00,
2013-11-27 01:23:00,41.4,38.7,29.96,ESE,121,4.9,4.9,90,0.00,,FEW200,0.00,VWS V14.01,2013-11-27 09:23:00,
2013-11-27 01:28:00,42.1,39.7,29.96,ESE,121,4.5,4.5,91,0.00,,FEW200,0.00,VWS V14.01,2013-11-27 09:28:00,
2013-11-27 01:33:00,41.2,38.5,29.96,SE,125,4.5,4.5,90,0.00,,FEW200,0.00,VWS V14.01,2013-11-27 09:33:00,
2013-11-27 01:38:00,41.9,39.2,29.96,SE,124,4.0,4.9,90,0.00,,FEW200,0.00,VWS V14.01,2013-11-27 09:38:00,
2013-11-27 01:43:00,41.5,38.8,29.96,SE,124,3.6,3.6,90,0.00,,FEW200,0.00,VWS V14.01,2013-11-27 09:43:00,
2013-11-27 01:48:00,41.0,37.7,29.96,SE,124,3.6,4.5,88,0.00,,FEW200,0.00,VWS V14.01,2013-11-27 09:48:00,
2013-11-27 01:54:00,41.5,38.8,29.96,SE,124,4.9,5.4,90,0.00,,FEW200,0.00,VWS V14.01,2013-11-27 09:54:00,
2013-11-27 01:59:00,41.0,38.0,29.96,SE,124,3.1,3.1,89,0.00,,CLR,0.00,VWS V14.01,2013-11-27 09:59:00,
2013-11-27 02:04:00,41.0,37.7,29.96,SE,124,2.7,3.6,88,0.00,,CLR,0.00,VWS V14.01,2013-11-27 10:04:00,
2013-11-27 02:09:00,41.0,37.7,29.96,SE,124,3.1,3.6,88,0.00,,CLR,0.00,VWS V14.01,2013-11-27 10:09:00,
2013-11-27 02:14:00,40.6,37.7,29.96,SE,124,3.6,4.0,89,0.00,,CLR,0.00,VWS V14.01,2013-11-27 10:14:00,
2013-11-27 02:19:00,40.1,36.8,29.96,SE,124,4.5,4.5,88,0.00,,CLR,0.00,VWS V14.01,2013-11-27 10:19:00,
2013-11-27 02:24:00,39.9,36.7,29.96,SE,124,4.0,5.4,88,0.00,,CLR,0.00,VWS V14.01,2013-11-27 10:24:00,
2013-11-27 02:29:00,39.9,37.0,29.96,ESE,121,4.5,5.4,89,0.00,,CLR,0.00,VWS V14.01,2013-11-27 10:29:00,
2013-11-27 02:34:00,40.3,37.9,29.96,ESE,121,4.0,4.0,91,0.00,,CLR,0.00,VWS V14.01,2013-11-27 10:34:00,
2013-11-27 02:39:00,40.3,37.9,29.96,ESE,121,4.0,4.5,91,0.00,,CLR,0.00,VWS V14.01,2013-11-27 10:39:00,
2013-11-27 02:44:00,39.7,37.0,29.96,ESE,121,3.6,3.6,90,0.00,,CLR,0.00,VWS V14.01,2013-11-27 10:44:00,
2013-11-27 02:49:00,40.3,37.9,29.96,ESE,121,4.5,4.9,91,0.00,,CLR,0.00,VWS V14.01,2013-11-27 10:49:00,
2013-11-27 02:55:00,40.5,38.3,29.96,ESE,121,4.0,4.5,92,0.00,,CLR,0.00,VWS V14.01,2013-11-27 10:55:00,
2013-11-27 03:00:00,40.6,38.5,29.96,ESE,121,2.7,4.0,92,0.00,,CLR,0.00,VWS V14.01,2013-11-27 11:00:00,
2013-11-27 03:05:00,39.9,37.8,29.96,ESE,121,4.5,4.5,92,0.00,,CLR,0.00,VWS V14.01,2013-11-27 11:05:00,
2013-11-27 03:10:00,40.5,38.0,29.96,ESE,121,4.0,4.5,91,0.00,,CLR,0.00,VWS V14.01,2013-11-27 11:10:00,
2013-11-27 03:15:00,40.5,38.3,29.96,ESE,121,3.6,4.0,92,0.00,,CLR,0.00,VWS V14.01,2013-11-27 11:15:00,
2013-11-27 03:20:00,40.5,38.3,29.96,ESE,120,3.1,4.0,92,0.00,,CLR,0.00,VWS V14.01,2013-11-27 11:20:00,
2013-11-27 03:25:00,40.6,38.5,29.93,ESE,121,3.1,4.9,92,0.00,,CLR,0.00,VWS V14.01,2013-11-27 11:25:00,
2013-11-27 03:30:00,40.6,38.5,29.93,ESE,121,4.5,4.9,92,0.00,,CLR,0.00,VWS V14.01,2013-11-27 11:30:00,
2013-11-27 03:35:00,40.6,38.5,29.93,ESE,121,3.6,4.0,92,0.00,,CLR,0.00,VWS V14.01,2013-11-27 11:35:00,
2013-11-27 03:40:00,40.5,38.3,29.93,ESE,121,3.6,4.0,92,0.00,,CLR,0.00,VWS V14.01,2013-11-27 11:40:00,
2013-11-27 03:45:00,39.9,37.8,29.93,ESE,121,0.0,4.0,92,0.00,,CLR,0.00,VWS V14.01,2013-11-27 11:45:00,
2013-11-27 03:50:00,40.3,37.9,29.93,ESE,121,0.0,0.0,91,0.00,,CLR,0.00,VWS V14.01,2013-11-27 11:50:00,
2013-11-27 03:56:00,39.2,36.5,29.93,ESE,121,0.0,0.0,90,0.00,,CLR,0.00,VWS V14.01,2013-11-27 11:56:00,
2013-11-27 04:01:00,38.7,35.7,29.93,ESE,121,3.1,4.0,89,0.00,,CLR,0.00,VWS V14.01,2013-11-27 12:01:00,
2013-11-27 04:06:00,38.8,35.9,29.93,ESE,121,4.0,4.0,89,0.00,,CLR,0.00,VWS V14.01,2013-11-27 12:06:00,
2013-11-27 04:11:00,39.2,36.8,29.93,ESE,121,4.0,4.0,91,0.00,,CLR,0.00,VWS V14.01,2013-11-27 12:11:00,
2013-11-27 04:16:00,38.7,36.3,29.93,ESE,121,3.1,3.6,91,0.00,,CLR,0.00,VWS V14.01,2013-11-27 12:16:00,
2013-11-27 04:21:00,38.8,36.4,29.93,ESE,121,3.1,3.6,91,0.00,,CLR,0.00,VWS V14.01,2013-11-27 12:21:00,
2013-11-27 04:26:00,38.8,36.7,29.93,ESE,121,3.6,4.0,92,0.00,,CLR,0.00,VWS V14.01,2013-11-27 12:26:00,
2013-11-27 04:31:00,38.8,36.7,29.93,ESE,121,3.6,3.6,92,0.00,,CLR,0.00,VWS V14.01,2013-11-27 12:31:00,
2013-11-27 04:36:00,38.1,36.0,29.93,ESE,121,3.1,4.0,92,0.00,,CLR,0.00,VWS V14.01,2013-11-27 12:36:00,
2013-11-27 04:41:00,38.7,36.5,29.93,ESE,121,3.1,4.0,92,0.00,,CLR,0.00,VWS V14.01,2013-11-27 12:41:00,
2013-11-27 04:46:00,38.8,37.0,29.93,ESE,121,3.1,4.0,93,0.00,,CLR,0.00,VWS V14.01,2013-11-27 12:46:00,
2013-11-27 04:51:00,39.2,37.6,29.93,ESE,121,3.6,3.6,94,0.00,,CLR,0.00,VWS V14.01,2013-11-27 12:51:00,
2013-11-27 04:56:00,39.2,37.6,29.93,ESE,121,3.6,4.0,94,0.00,,CLR,0.00,VWS V14.01,2013-11-27 12:56:00,
2013-11-27 05:01:00,39.7,38.4,29.93,ESE,121,3.1,3.6,95,0.00,,CLR,0.00,VWS V14.01,2013-11-27 13:01:00,
2013-11-27 05:06:00,39.9,38.6,29.90,ESE,121,3.1,4.5,95,0.00,,CLR,0.00,VWS V14.01,2013-11-27 13:06:00,
2013-11-27 05:11:00,40.3,39.0,29.90,ESE,121,3.1,3.6,95,0.00,,CLR,0.00,VWS V14.01,2013-11-27 13:11:00,
2013-11-27 05:16:00,40.5,39.1,29.90,ESE,121,0.0,0.0,95,0.00,,CLR,0.00,VWS V14.01,2013-11-27 13:16:00,
2013-11-27 05:21:00,41.4,40.3,29.90,ESE,121,3.1,3.1,96,0.00,,CLR,0.00,VWS V14.01,2013-11-27 13:21:00,
2013-11-27 05:26:00,40.1,38.8,29.90,ESE,121,0.0,3.6,95,0.00,,CLR,0.00,VWS V14.01,2013-11-27 13:26:00,
2013-11-27 05:31:00,40.3,38.7,29.90,ESE,121,3.1,3.6,94,0.00,,CLR,0.00,VWS V14.01,2013-11-27 13:31:00,
2013-11-27 05:36:00,40.6,39.0,29.90,ESE,121,0.0,0.0,94,0.00,,CLR,0.00,VWS V14.01,2013-11-27 13:36:00,
2013-11-27 05:41:00,40.6,39.0,29.90,ESE,121,0.0,0.0,94,0.00,,CLR,0.00,VWS V14.01,2013-11-27 13:41:00,
2013-11-27 05:46:00,40.8,39.2,29.90,ESE,121,0.0,0.0,94,0.00,,CLR,0.00,VWS V14.01,2013-11-27 13:46:00,
2013-11-27 05:51:00,40.1,38.2,29.90,ESE,121,0.0,0.0,93,0.00,,CLR,0.00,VWS V14.01,2013-11-27 13:51:00,
2013-11-27 05:56:00,40.6,38.8,29.90,ESE,121,0.0,0.0,93,0.00,,CLR,0.00,VWS V14.01,2013-11-27 13:56:00,
2013-11-27 06:01:00,40.3,38.4,29.90,ESE,122,0.0,0.0,93,0.00,,SCT200,0.00,VWS V14.01,2013-11-27 14:01:00,
2013-11-27 06:06:00,39.7,37.6,29.90,ESE,120,0.0,0.0,92,0.00,,SCT200,0.00,VWS V14.01,2013-11-27 14:06:00,
2013-11-27 06:11:00,39.9,37.8,29.90,ESE,121,0.0,0.0,92,0.00,,SCT200,0.00,VWS V14.01,2013-11-27 14:11:00,
2013-11-27 06:16:00,40.3,38.2,29.90,ESE,121,0.0,0.0,92,0.00,,SCT200,0.00,VWS V14.01,2013-11-27 14:16:00,
2013-11-27 06:22:00,40.5,38.6,29.90,ESE,121,0.0,0.0,93,0.00,,SCT200,0.00,VWS V14.01,2013-11-27 14:22:00,
2013-11-27 06:27:00,39.4,37.2,29.90,ESE,121,3.6,4.0,92,0.00,,SCT200,0.00,VWS V14.01,2013-11-27 14:27:00,
2013-11-27 06:32:00,39.7,37.9,29.90,ESE,121,3.1,3.6,93,0.00,,SCT200,0.00,VWS V14.01,2013-11-27 14:32:00,
2013-11-27 06:37:00,39.6,37.7,29.90,ESE,121,3.1,3.6,93,0.00,,SCT200,0.00,VWS V14.01,2013-11-27 14:37:00,
2013-11-27 06:42:00,39.6,37.7,29.90,ESE,121,0.0,3.6,93,0.00,,SCT200,0.00,VWS V14.01,2013-11-27 14:42:00,
2013-11-27 06:47:00,39.6,38.0,29.90,ESE,121,0.0,0.0,94,0.00,,SCT200,0.00,VWS V14.01,2013-11-27 14:47:00,
2013-11-27 06:52:00,39.9,38.3,29.90,ESE,120,0.0,0.0,94,0.00,,SCT200,0.00,VWS V14.01,2013-11-27 14:52:00,
2013-11-27 06:57:00,39.7,38.2,29.90,ESE,121,0.0,0.0,94,0.00,,SCT200,0.00,VWS V14.01,2013-11-27 14:57:00,
2013-11-27 07:02:00,39.2,37.6,29.90,ESE,121,0.0,4.0,94,0.00,,SCT200,0.00,VWS V14.01,2013-11-27 15:02:00,
2013-11-27 07:07:00,38.8,37.0,29.90,ESE,120,3.6,3.6,93,0.00,,SCT200,0.00,VWS V14.01,2013-11-27 15:07:00,
2013-11-27 07:12:00,38.8,37.0,29.90,ESE,122,4.5,4.5,93,0.00,,SCT200,0.00,VWS V14.01,2013-11-27 15:12:00,
2013-11-27 07:17:00,38.8,37.0,29.90,ESE,122,2.7,4.5,93,0.00,,SCT200,0.00,VWS V14.01,2013-11-27 15:17:00,
2013-11-27 07:22:00,38.8,37.0,29.90,ESE,121,4.0,4.0,93,0.00,,SCT200,0.00,VWS V14.01,2013-11-27 15:22:00,
2013-11-27 07:28:00,38.8,37.0,29.90,ESE,120,4.5,5.4,93,0.00,,SCT200,0.00,VWS V14.01,2013-11-27 15:28:00,
2013-11-27 07:33:00,39.2,37.6,29.90,ESE,120,2.7,3.1,94,0.00,,SCT200,0.00,VWS V14.01,2013-11-27 15:33:00,
2013-11-27 07:38:00,38.8,37.0,29.90,ESE,120,4.0,4.5,93,0.00,,SCT200,0.00,VWS V14.01,2013-11-27 15:38:00,
2013-11-27 07:43:00,39.0,37.2,29.90,ESE,119,4.0,4.9,93,0.00,,SCT200,0.00,VWS V14.01,2013-11-27 15:43:00,
2013-11-27 07:48:00,39.2,37.3,29.90,ESE,119,3.6,4.0,93,0.00,,SCT200,0.00,VWS V14.01,2013-11-27 15:48:00,
2013-11-27 07:53:00,39.2,37.1,29.90,ESE,119,3.6,3.6,92,0.00,,SCT200,0.00,VWS V14.01,2013-11-27 15:53:00,
2013-11-27 07:58:00,39.6,37.4,29.90,ESE,119,4.0,5.4,92,0.00,,SCT200,0.00,VWS V14.01,2013-11-27 15:58:00,
2013-11-27 08:03:00,39.4,36.7,29.90,ESE,119,4.5,4.5,90,0.00,,SCT200,0.00,VWS V14.01,2013-11-27 16:03:00,
2013-11-27 08:08:00,39.7,36.8,29.90,ESE,119,4.5,4.9,89,0.00,,SCT200,0.00,VWS V14.01,2013-11-27 16:08:00,
2013-11-27 08:13:00,39.9,36.7,29.90,ESE,119,4.0,4.5,88,0.00,,SCT200,0.00,VWS V14.01,2013-11-27 16:13:00,
2013-11-27 08:18:00,39.9,36.7,29.90,ESE,119,3.1,4.5,88,0.00,,SCT200,0.00,VWS V14.01,2013-11-27 16:18:00,
2013-11-27 08:23:00,40.5,36.9,29.90,ESE,119,3.1,4.0,87,0.00,,SCT200,0.00,VWS V14.01,2013-11-27 16:23:00,
2013-11-27 08:29:00,40.3,36.4,29.90,ESE,119,3.6,4.0,86,0.00,,SCT200,0.00,VWS V14.01,2013-11-27 16:29:00,
2013-11-27 08:34:00,40.8,37.3,29.90,ESE,118,0.0,3.6,87,0.00,,SCT200,0.00,VWS V14.01,2013-11-27 16:34:00,
2013-11-27 08:39:00,41.2,37.6,29.90,ESE,119,2.7,4.9,87,0.00,,SCT200,0.00,VWS V14.01,2013-11-27 16:39:00,
2013-11-27 08:45:00,41.7,38.1,29.90,ESE,119,0.0,0.0,87,0.00,,SCT200,0.00,VWS V14.01,2013-11-27 16:45:00,
2013-11-27 08:50:00,42.4,38.6,29.90,ESE,119,3.1,4.0,86,0.00,,SCT200,0.00,VWS V14.01,2013-11-27 16:50:00,
2013-11-27 08:55:00,43.2,39.3,29.90,ESE,119,0.0,0.0,86,0.00,,SCT200,0.00,VWS V14.01,2013-11-27 16:55:00,
2013-11-27 09:00:00,43.7,39.5,29.90,ESE,118,0.0,0.0,85,0.00,,BKN300,0.00,VWS V14.01,2013-11-27 17:00:00,
2013-11-27 09:05:00,44.6,40.1,29.90,ESE,118,0.0,0.0,84,0.00,,BKN300,0.00,VWS V14.01,2013-11-27 17:05:00,
2013-11-27 09:10:00,45.7,40.8,29.90,ESE,118,0.0,0.0,83,0.00,,BKN300,0.00,VWS V14.01,2013-11-27 17:10:00,
2013-11-27 09:15:00,46.4,41.5,29.90,ESE,119,0.0,0.0,83,0.00,,BKN300,0.00,VWS V14.01,2013-11-27 17:15:00,
2013-11-27 09:20:00,46.8,41.9,29.90,ESE,119,0.0,0.0,83,0.00,,BKN300,0.00,VWS V14.01,2013-11-27 17:20:00,
2013-11-27 09:25:00,47.1,42.2,29.90,ESE,119,0.0,0.0,83,0.00,,BKN300,0.00,VWS V14.01,2013-11-27 17:25:00,
2013-11-27 09:31:00,47.8,42.6,29.90,ESE,119,0.0,0.0,82,0.00,,BKN300,0.00,VWS V14.01,2013-11-27 17:31:00,
2013-11-27 09:36:00,47.8,42.0,29.90,ESE,118,0.0,0.0,80,0.00,,BKN300,0.00,VWS V14.01,2013-11-27 17:36:00,
2013-11-27 09:41:00,48.7,42.2,29.90,ESE,119,0.0,0.0,78,0.00,,BKN300,0.00,VWS V14.01,2013-11-27 17:41:00,
2013-11-27 09:46:00,49.3,42.7,29.90,ESE,119,0.0,0.0,78,0.00,,BKN300,0.00,VWS V14.01,2013-11-27 17:46:00,
2013-11-27 09:51:00,50.2,43.6,29.87,ESE,118,0.0,0.0,78,0.00,,BKN300,0.00,VWS V14.01,2013-11-27 17:51:00,
2013-11-27 09:56:00,51.1,44.5,29.87,ESE,119,0.0,0.0,78,0.00,,BKN300,0.00,VWS V14.01,2013-11-27 17:56:00,
2013-11-27 10:01:00,51.8,45.2,29.87,ESE,118,0.0,0.0,78,0.00,,BKN300,0.00,VWS V14.01,2013-11-27 18:01:00,
2013-11-27 10:06:00,52.5,45.9,29.87,ESE,119,0.0,3.1,78,0.00,,BKN300,0.00,VWS V14.01,2013-11-27 18:06:00,
2013-11-27 10:11:00,52.9,45.2,29.87,ESE,115,0.0,0.0,75,0.00,,BKN300,0.00,VWS V14.01,2013-11-27 18:11:00,
2013-11-27 10:16:00,53.1,44.3,29.87,West,277,4.9,6.3,72,0.00,,BKN300,0.00,VWS V14.01,2013-11-27 18:16:00,
2013-11-27 10:21:00,53.2,35.6,29.87,West,281,4.5,5.4,51,0.00,,BKN300,0.00,VWS V14.01,2013-11-27 18:21:00,
2013-11-27 10:26:00,54.1,35.4,29.87,WNW,286,0.0,4.0,49,0.00,,BKN300,0.00,VWS V14.01,2013-11-27 18:26:00,
2013-11-27 10:32:00,54.7,34.9,29.87,WNW,286,0.0,0.0,47,0.00,,BKN300,0.00,VWS V14.01,2013-11-27 18:32:00,
2013-11-27 10:37:00,55.2,35.4,29.87,WNW,286,0.0,0.0,47,0.00,,BKN300,0.00,VWS V14.01,2013-11-27 18:37:00,
2013-11-27 10:42:00,55.8,36.4,29.87,WNW,286,0.0,0.0,48,0.00,,BKN300,0.00,VWS V14.01,2013-11-27 18:42:00,
2013-11-27 10:47:00,56.3,35.2,29.87,WNW,286,0.0,0.0,45,0.00,,BKN300,0.00,VWS V14.01,2013-11-27 18:47:00,
2013-11-27 10:52:00,56.8,36.3,29.87,WNW,286,0.0,0.0,46,0.00,,BKN300,0.00,VWS V14.01,2013-11-27 18:52:00,
2013-11-27 10:56:00,57.2,35.5,29.87,WSW,240,3.6,4.9,44,0.00,,BKN300,0.00,VWS V14.01,2013-11-27 18:56:00,
2013-11-27 11:01:00,57.9,33.1,29.87,WSW,252,4.9,4.9,39,0.00,,BKN300,0.00,VWS V14.01,2013-11-27 19:01:00,
2013-11-27 11:06:00,57.9,32.5,29.87,WSW,237,0.0,0.0,38,0.00,,BKN300,0.00,VWS V14.01,2013-11-27 19:06:00,
2013-11-27 11:11:00,58.1,32.0,29.87,NNW,343,4.5,6.3,37,0.00,,BKN300,0.00,VWS V14.01,2013-11-27 19:11:00,
2013-11-27 11:16:00,58.1,32.0,29.87,NNW,344,0.0,3.6,37,0.00,,BKN300,0.00,VWS V14.01,2013-11-27 19:16:00,
2013-11-27 11:21:00,58.5,30.9,29.87,NNW,342,4.9,6.3,35,0.00,,BKN300,0.00,VWS V14.01,2013-11-27 19:21:00,
2013-11-27 11:26:00,58.8,31.2,29.87,WNW,296,4.5,4.9,35,0.00,,BKN300,0.00,VWS V14.01,2013-11-27 19:26:00,
2013-11-27 11:31:00,59.5,31.9,29.87,West,266,5.8,6.7,35,0.00,,BKN300,0.00,VWS V14.01,2013-11-27 19:31:00,
2013-11-27 11:37:00,60.3,31.8,29.87,West,272,0.0,4.0,34,0.00,,BKN300,0.00,VWS V14.01,2013-11-27 19:37:00,
2013-11-27 11:42:00,60.6,31.4,29.87,West,273,0.0,0.0,33,0.00,,BKN300,0.00,VWS V14.01,2013-11-27 19:42:00,
2013-11-27 11:47:00,61.2,29.5,29.87,NNW,329,5.4,6.7,30,0.00,,BKN300,0.00,VWS V14.01,2013-11-27 19:47:00,
2013-11-27 11:52:00,61.2,28.7,29.84,NW,321,0.0,0.0,29,0.00,,BKN300,0.00,VWS V14.01,2013-11-27 19:52:00,
2013-11-27 11:57:00,61.7,30.8,29.84,NW,321,3.1,3.6,31,0.00,,BKN300,0.00,VWS V14.01,2013-11-27 19:57:00,
2013-11-27 12:02:00,62.1,31.1,29.84,West,277,3.6,4.9,31,0.00,,BKN300,0.00,VWS V14.01,2013-11-27 20:02:00,
2013-11-27 12:07:00,62.2,31.2,29.84,West,277,3.1,5.4,31,0.00,,BKN300,0.00,VWS V14.01,2013-11-27 20:07:00,
2013-11-27 12:12:00,62.6,30.8,29.84,West,277,4.0,4.0,30,0.00,,BKN300,0.00,VWS V14.01,2013-11-27 20:12:00,
2013-11-27 12:17:00,63.0,30.2,29.84,West,261,5.8,6.3,29,0.00,,BKN300,0.00,VWS V14.01,2013-11-27 20:17:00,
2013-11-27 12:22:00,63.5,30.7,29.84,West,267,0.0,4.9,29,0.00,,BKN300,0.00,VWS V14.01,2013-11-27 20:22:00,
2013-11-27 12:27:00,63.3,29.7,29.84,NW,316,6.7,7.8,28,0.00,,BKN300,0.00,VWS V14.01,2013-11-27 20:27:00,
2013-11-27 12:32:00,63.0,29.4,29.84,West,274,6.3,7.4,28,0.00,,BKN300,0.00,VWS V14.01,2013-11-27 20:32:00,
2013-11-27 12:38:00,63.0,31.9,29.84,WNW,289,3.1,6.3,31,0.00,,BKN300,0.00,VWS V14.01,2013-11-27 20:38:00,
2013-11-27 12:43:00,63.1,32.0,29.84,WNW,282,4.0,6.3,31,0.00,,BKN300,0.00,VWS V14.01,2013-11-27 20:43:00,
2013-11-27 12:48:00,63.1,32.0,29.84,WNW,298,3.1,4.5,31,0.00,,BKN300,0.00,VWS V14.01,2013-11-27 20:48:00,
2013-11-27 12:53:00,63.1,32.8,29.84,West,278,5.4,6.3,32,0.00,,BKN300,0.00,VWS V14.01,2013-11-27 20:53:00,
2013-11-27 12:58:00,63.3,32.2,29.84,West,278,3.1,3.6,31,0.00,,BKN300,0.00,VWS V14.01,2013-11-27 20:58:00,
2013-11-27 13:03:00,63.3,32.2,29.84,West,277,2.7,5.4,31,0.00,,BKN300,0.00,VWS V14.01,2013-11-27 21:03:00,
2013-11-27 13:08:00,63.3,32.2,29.81,West,278,3.6,4.5,31,0.00,,BKN300,0.00,VWS V14.01,2013-11-27 21:08:00,
2013-11-27 13:13:00,63.5,32.3,29.81,West,278,5.4,5.8,31,0.00,,BKN300,0.00,VWS V14.01,2013-11-27 21:13:00,
2013-11-27 13:18:00,63.9,31.9,29.81,WNW,288,4.9,5.4,30,0.00,,BKN300,0.00,VWS V14.01,2013-11-27 21:18:00,
2013-11-27 13:23:00,64.4,32.3,29.81,West,273,4.5,7.8,30,0.00,,BKN300,0.00,VWS V14.01,2013-11-27 21:23:00,
2013-11-27 13:28:00,64.4,32.3,29.81,NW,305,4.9,6.7,30,0.00,,BKN300,0.00,VWS V14.01,2013-11-27 21:28:00,
2013-11-27 13:33:00,64.0,32.0,29.81,NW,305,4.0,4.9,30,0.00,,BKN300,0.00,VWS V14.01,2013-11-27 21:33:00,
2013-11-27 13:39:00,64.6,33.3,29.81,West,272,5.4,7.4,31,0.00,,BKN300,0.00,VWS V14.01,2013-11-27 21:39:00,
2013-11-27 13:44:00,65.1,32.9,29.81,WNW,284,5.4,7.8,30,0.00,,BKN300,0.00,VWS V14.01,2013-11-27 21:44:00,
2013-11-27 13:49:00,65.7,32.6,29.81,West,271,5.4,7.4,29,0.00,,BKN300,0.00,VWS V14.01,2013-11-27 21:49:00,
2013-11-27 13:54:00,65.7,31.7,29.81,NNW,331,3.6,3.6,28,0.00,,BKN300,0.00,VWS V14.01,2013-11-27 21:54:00,
2013-11-27 13:59:00,65.8,31.9,29.81,NW,322,0.0,4.0,28,0.00,,BKN300,0.00,VWS V14.01,2013-11-27 21:59:00,
2013-11-27 14:04:00,65.8,31.9,29.81,NW,322,4.9,5.8,28,0.00,,BKN300,0.00,VWS V14.01,2013-11-27 22:04:00,
2013-11-27 14:09:00,65.8,31.9,29.78,WNW,301,4.9,5.8,28,0.00,,BKN300,0.00,VWS V14.01,2013-11-27 22:09:00,
2013-11-27 14:14:00,66.0,32.9,29.78,WNW,298,0.0,2.7,29,0.00,,BKN300,0.00,VWS V14.01,2013-11-27 22:14:00,
2013-11-27 14:19:00,65.8,31.9,29.78,WNW,282,5.4,5.4,28,0.00,,BKN300,0.00,VWS V14.01,2013-11-27 22:19:00,
2013-11-27 14:24:00,65.8,31.9,29.78,WSW,246,5.4,6.3,28,0.00,,BKN300,0.00,VWS V14.01,2013-11-27 22:24:00,
2013-11-27 14:29:00,66.0,32.0,29.78,SW,234,5.4,5.8,28,0.00,,BKN300,0.00,VWS V14.01,2013-11-27 22:29:00,
2013-11-27 14:34:00,66.0,32.9,29.78,West,274,5.4,6.9,29,0.00,,BKN300,0.00,VWS V14.01,2013-11-27 22:34:00,
2013-11-27 14:39:00,65.7,32.6,29.78,West,277,4.9,6.7,29,0.00,,BKN300,0.00,VWS V14.01,2013-11-27 22:39:00,
2013-11-27 14:45:00,65.1,32.9,29.78,West,277,5.8,6.3,30,0.00,,BKN300,0.00,VWS V14.01,2013-11-27 22:45:00,
2013-11-27 14:50:00,64.9,33.6,29.78,WNW,287,4.0,6.7,31,0.00,,BKN300,0.00,VWS V14.01,2013-11-27 22:50:00,
2013-11-27 14:55:00,64.8,34.2,29.78,West,272,4.9,5.4,32,0.00,,BKN300,0.00,VWS V14.01,2013-11-27 22:55:00,
2013-11-27 15:00:00,64.6,34.8,29.78,West,272,6.3,6.3,33,0.00,,SCT300,0.00,VWS V14.01,2013-11-27 23:00:00,
2013-11-27 15:05:00,64.4,34.7,29.78,WNW,292,4.0,5.4,33,0.00,,SCT300,0.00,VWS V14.01,2013-11-27 23:05:00,
2013-11-27 15:10:00,64.0,34.4,29.78,WNW,297,4.9,6.7,33,0.00,,SCT300,0.00,VWS V14.01,2013-11-27 23:10:00,
2013-11-27 15:15:00,63.7,34.1,29.78,WNW,283,3.6,6.3,33,0.00,,SCT300,0.00,VWS V14.01,2013-11-27 23:15:00,
2013-11-27 15:20:00,63.3,34.5,29.78,WNW,295,5.4,7.4,34,0.00,,SCT300,0.00,VWS V14.01,2013-11-27 23:20:00,
2013-11-27 15:25:00,62.8,34.0,29.78,West,274,6.3,6.3,34,0.00,,SCT300,0.00,VWS V14.01,2013-11-27 23:25:00,
2013-11-27 15:30:00,62.2,33.5,29.78,SW,233,2.7,5.4,34,0.00,,SCT300,0.00,VWS V14.01,2013-11-27 23:30:00,
2013-11-27 15:35:00,61.7,33.1,29.78,WSW,243,0.0,4.5,34,0.00,,SCT300,0.00,VWS V14.01,2013-11-27 23:35:00,
2013-11-27 15:40:00,61.3,33.5,29.78,WSW,253,0.0,3.6,35,0.00,,SCT300,0.00,VWS V14.01,2013-11-27 23:40:00,
2013-11-27 15:46:00,60.6,33.5,29.78,WSW,254,0.0,0.0,36,0.00,,SCT300,0.00,VWS V14.01,2013-11-27 23:46:00,
2013-11-27 15:51:00,60.1,33.1,29.78,WSW,253,2.7,3.1,36,0.00,,SCT300,0.00,VWS V14.01,2013-11-27 23:51:00,
2013-11-27 15:56:00,59.7,33.4,29.78,WSW,253,0.0,3.1,37,0.00,,SCT300,0.00,VWS V14.01,2013-11-27 23:56:00,
2013-11-27 16:01:00,59.4,33.8,29.78,WSW,253,0.0,2.7,38,0.00,,SCT300,0.00,VWS V14.01,2013-11-28 00:01:00,
2013-11-27 16:06:00,58.8,33.9,29.78,WSW,254,0.0,0.0,39,0.00,,SCT300,0.00,VWS V14.01,2013-11-28 00:06:00,
2013-11-27 16:11:00,58.3,34.1,29.78,WSW,254,3.1,3.6,40,0.00,,SCT300,0.00,VWS V14.01,2013-11-28 00:11:00,
2013-11-27 16:16:00,57.7,34.2,29.78,WSW,253,0.0,0.0,41,0.00,,SCT300,0.00,VWS V14.01,2013-11-28 00:16:00,
2013-11-27 16:21:00,57.6,35.2,29.78,WSW,253,0.0,0.0,43,0.00,,SCT300,0.00,VWS V14.01,2013-11-28 00:21:00,
2013-11-27 16:26:00,57.2,35.5,29.78,WSW,253,0.0,0.0,44,0.00,,SCT300,0.00,VWS V14.01,2013-11-28 00:26:00,
2013-11-27 16:31:00,56.5,35.4,29.78,WSW,253,0.0,0.0,45,0.00,,SCT300,0.00,VWS V14.01,2013-11-28 00:31:00,
2013-11-27 16:36:00,55.6,35.2,29.78,WSW,254,0.0,0.0,46,0.00,,SCT300,0.00,VWS V14.01,2013-11-28 00:36:00,
2013-11-27 16:41:00,55.0,35.7,29.78,WSW,253,2.7,4.0,48,0.00,,SCT300,0.00,VWS V14.01,2013-11-28 00:41:00,
2013-11-27 16:47:00,54.5,35.8,29.78,WSW,253,3.6,4.0,49,0.00,,SCT300,0.00,VWS V14.01,2013-11-28 00:47:00,
2013-11-27 16:52:00,54.0,35.8,29.78,WSW,253,2.7,3.1,50,0.00,,SCT300,0.00,VWS V14.01,2013-11-28 00:52:00,
2013-11-27 16:57:00,53.4,36.2,29.78,WSW,253,2.7,2.7,52,0.00,,SCT300,0.00,VWS V14.01,2013-11-28 00:57:00,
2013-11-27 17:02:00,53.2,36.1,29.78,WSW,253,3.6,3.6,52,0.00,,BKN250,0.00,VWS V14.01,2013-11-28 01:02:00,
2013-11-27 17:07:00,52.7,35.6,29.78,WSW,253,3.1,3.1,52,0.00,,BKN250,0.00,VWS V14.01,2013-11-28 01:07:00,
2013-11-27 17:12:00,52.3,35.7,29.78,WSW,253,3.6,3.6,53,0.00,,BKN250,0.00,VWS V14.01,2013-11-28 01:12:00,
2013-11-27 17:17:00,52.2,36.5,29.78,WSW,253,3.1,4.0,55,0.00,,BKN250,0.00,VWS V14.01,2013-11-28 01:17:00,
2013-11-27 17:22:00,52.0,36.3,29.78,WSW,251,4.5,4.9,55,0.00,,BKN250,0.00,VWS V14.01,2013-11-28 01:22:00,
2013-11-27 17:27:00,52.0,36.8,29.78,WSW,249,4.0,4.5,56,0.00,,BKN250,0.00,VWS V14.01,2013-11-28 01:27:00,
2013-11-27 17:32:00,51.8,36.6,29.78,WSW,250,4.0,4.0,56,0.00,,BKN250,0.00,VWS V14.01,2013-11-28 01:32:00,
2013-11-27 17:37:00,51.6,36.5,29.78,WSW,249,4.0,4.5,56,0.00,,BKN250,0.00,VWS V14.01,2013-11-28 01:37:00,
2013-11-27 17:42:00,51.6,36.9,29.78,WSW,250,3.6,4.0,57,0.00,,BKN250,0.00,VWS V14.01,2013-11-28 01:42:00,
2013-11-27 17:48:00,50.9,35.8,29.78,WSW,250,4.5,4.9,56,0.00,,BKN250,0.00,VWS V14.01,2013-11-28 01:48:00,
2013-11-27 17:53:00,50.7,36.9,29.78,SSE,148,4.0,4.9,59,0.00,,BKN250,0.00,VWS V14.01,2013-11-28 01:53:00,
2013-11-27 17:58:00,50.5,36.8,29.78,SSE,147,4.9,5.4,59,0.00,,BKN250,0.00,VWS V14.01,2013-11-28 01:58:00,
2013-11-27 18:04:00,50.0,36.7,29.78,SSE,147,4.9,4.9,60,0.00,,BKN200,0.00,VWS V14.01,2013-11-28 02:04:00,
2013-11-27 18:09:00,49.8,36.9,29.78,SE,136,4.5,5.4,61,0.00,,BKN200,0.00,VWS V14.01,2013-11-28 02:09:00,
2013-11-27 18:14:00,49.6,37.2,29.78,SE,135,4.0,4.9,62,0.00,,BKN200,0.00,VWS V14.01,2013-11-28 02:14:00,
2013-11-27 18:19:00,49.6,37.2,29.78,SE,134,3.1,4.0,62,0.00,,BKN200,0.00,VWS V14.01,2013-11-28 02:19:00,
2013-11-27 18:24:00,49.5,37.0,29.78,SE,135,0.0,3.1,62,0.00,,BKN200,0.00,VWS V14.01,2013-11-28 02:24:00,
2013-11-27 18:29:00,49.3,37.2,29.78,SE,135,0.0,0.0,63,0.00,,BKN200,0.00,VWS V14.01,2013-11-28 02:29:00,
2013-11-27 18:34:00,49.1,37.1,29.78,SE,135,4.5,4.5,63,0.00,,BKN200,0.00,VWS V14.01,2013-11-28 02:34:00,
2013-11-27 18:39:00,49.1,37.5,29.78,SE,134,4.9,5.4,64,0.00,,BKN200,0.00,VWS V14.01,2013-11-28 02:39:00,
2013-11-27 18:44:00,48.7,37.1,29.78,SE,134,4.0,4.5,64,0.00,,BKN200,0.00,VWS V14.01,2013-11-28 02:44:00,
2013-11-27 18:49:00,48.6,37.3,29.78,SE,134,4.0,5.4,65,0.00,,BKN200,0.00,VWS V14.01,2013-11-28 02:49:00,
2013-11-27 18:55:00,48.2,37.4,29.78,SE,133,5.8,5.8,66,0.00,,BKN200,0.00,VWS V14.01,2013-11-28 02:55:00,
2013-11-27 19:00:00,48.2,37.4,29.78,SE,131,4.9,5.4,66,0.00,,BKN200,0.00,VWS V14.01,2013-11-28 03:00:00,
2013-11-27 19:05:00,47.8,37.0,29.78,SE,131,4.0,4.9,66,0.00,,BKN200,0.00,VWS V14.01,2013-11-28 03:05:00,
2013-11-27 19:10:00,47.3,36.9,29.78,SE,132,4.0,4.5,67,0.00,,BKN200,0.00,VWS V14.01,2013-11-28 03:10:00,
2013-11-27 19:15:00,47.1,37.1,29.78,SE,131,4.0,4.5,68,0.00,,BKN200,0.00,VWS V14.01,2013-11-28 03:15:00,
2013-11-27 19:20:00,46.9,37.3,29.78,SE,131,4.5,4.5,69,0.00,,BKN200,0.00,VWS V14.01,2013-11-28 03:20:00,
2013-11-27 19:25:00,46.8,37.1,29.78,SE,131,4.0,4.0,69,0.00,,BKN200,0.00,VWS V14.01,2013-11-28 03:25:00,
2013-11-27 19:30:00,46.2,37.0,29.78,SE,131,4.5,5.4,70,0.00,,BKN200,0.00,VWS V14.01,2013-11-28 03:30:00,
2013-11-27 19:35:00,46.0,37.2,29.78,SE,128,4.5,4.9,71,0.00,,BKN200,0.00,VWS V14.01,2013-11-28 03:35:00,
2013-11-27 19:40:00,46.0,37.2,29.78,SE,128,4.5,4.5,71,0.00,,BKN200,0.00,VWS V14.01,2013-11-28 03:40:00,
2013-11-27 19:45:00,46.0,37.2,29.78,SE,128,4.0,4.0,71,0.00,,BKN200,0.00,VWS V14.01,2013-11-28 03:45:00,
2013-11-27 19:50:00,46.0,37.5,29.78,SE,128,4.9,5.4,72,0.00,,BKN200,0.00,VWS V14.01,2013-11-28 03:50:00,
2013-11-27 19:56:00,45.9,37.0,29.78,SE,127,3.6,5.4,71,0.00,,BKN200,0.00,VWS V14.01,2013-11-28 03:56:00,
2013-11-27 20:01:00,45.5,36.7,29.78,SE,128,4.5,4.9,71,0.00,,BKN200,0.00,VWS V14.01,2013-11-28 04:01:00,
2013-11-27 20:06:00,45.3,36.8,29.78,SE,128,4.0,4.0,72,0.00,,BKN200,0.00,VWS V14.01,2013-11-28 04:06:00,
2013-11-27 20:11:00,45.3,36.8,29.78,SE,128,4.5,4.9,72,0.00,,BKN200,0.00,VWS V14.01,2013-11-28 04:11:00,
2013-11-27 20:16:00,45.5,37.4,29.78,SE,128,0.0,3.1,73,0.00,,BKN200,0.00,VWS V14.01,2013-11-28 04:16:00,
2013-11-27 20:21:00,45.3,36.8,29.78,SE,128,3.1,3.6,72,0.00,,BKN200,0.00,VWS V14.01,2013-11-28 04:21:00,
2013-11-27 20:26:00,45.0,36.5,29.78,SE,128,4.0,4.0,72,0.00,,BKN200,0.00,VWS V14.01,2013-11-28 04:26:00,
2013-11-27 20:31:00,45.1,37.4,29.78,SE,128,5.4,5.8,74,0.00,,BKN200,0.00,VWS V14.01,2013-11-28 04:31:00,
2013-11-27 20:36:00,45.1,37.4,29.78,SE,128,3.6,4.5,74,0.00,,BKN200,0.00,VWS V14.01,2013-11-28 04:36:00,
2013-11-27 20:41:00,45.3,37.5,29.78,SE,128,3.6,4.5,74,0.00,,BKN200,0.00,VWS V14.01,2013-11-28 04:41:00,
2013-11-27 20:46:00,45.3,37.2,29.78,SE,128,4.5,5.4,73,0.00,,BKN200,0.00,VWS V14.01,2013-11-28 04:46:00,
2013-11-27 20:51:00,45.5,37.0,29.78,SE,127,4.9,5.4,72,0.00,,BKN200,0.00,VWS V14.01,2013-11-28 04:51:00,
2013-11-27 20:56:00,45.3,36.5,29.78,SE,127,3.6,4.5,71,0.00,,BKN200,0.00,VWS V14.01,2013-11-28 04:56:00,
2013-11-27 21:01:00,45.1,36.3,29.78,SE,127,4.0,4.0,71,0.00,,BKN200,0.00,VWS V14.01,2013-11-28 05:01:00,
2013-11-27 21:02:00,45.1,36.3,29.78,SE,128,4.0,4.5,71,0.00,,BKN200,0.00,VWS V14.01,2013-11-28 05:02:00,
2013-11-27 21:03:00,45.0,36.1,29.78,SE,127,4.0,4.5,71,0.00,,BKN200,0.00,VWS V14.01,2013-11-28 05:03:00,
2013-11-27 21:05:00,44.8,36.0,29.78,SE,128,3.6,4.5,71,0.00,,BKN200,0.00,VWS V14.01,2013-11-28 05:05:00,
2013-11-27 21:06:00,44.8,36.0,29.78,SE,128,3.6,4.0,71,0.00,,BKN200,0.00,VWS V14.01,2013-11-28 05:06:00,
2013-11-27 21:11:00,44.4,36.0,29.78,SE,128,4.0,4.0,72,0.00,,BKN200,0.00,VWS V14.01,2013-11-28 05:11:00,
2013-11-27 21:16:00,44.1,35.6,29.78,SE,128,3.6,4.5,72,0.00,,BKN200,0.00,VWS V14.01,2013-11-28 05:16:00,
2013-11-27 21:20:00,44.1,36.0,29.78,SE,127,4.0,4.5,73,0.00,,BKN200,0.00,VWS V14.01,2013-11-28 05:20:00,
2013-11-27 21:25:00,44.1,36.3,29.81,SE,128,4.5,4.5,74,0.00,,BKN200,0.00,VWS V14.01,2013-11-28 05:25:00,
2013-11-27 21:30:00,44.1,36.0,29.81,SE,128,4.0,4.5,73,0.00,,BKN200,0.00,VWS V14.01,2013-11-28 05:30:00,
2013-11-27 21:35:00,43.7,35.6,29.81,SE,128,4.0,4.5,73,0.00,,BKN200,0.00,VWS V14.01,2013-11-28 05:35:00,
2013-11-27 21:40:00,43.7,35.6,29.78,SE,128,4.0,4.0,73,0.00,,BKN200,0.00,VWS V14.01,2013-11-28 05:40:00,
2013-11-27 21:45:00,44.1,36.3,29.78,SE,128,4.5,4.9,74,0.00,,BKN200,0.00,VWS V14.01,2013-11-28 05:45:00,
2013-11-27 21:50:00,43.7,35.6,29.78,SE,128,4.0,4.5,73,0.00,,BKN200,0.00,VWS V14.01,2013-11-28 05:50:00,
2013-11-27 21:55:00,43.5,35.5,29.81,SE,127,0.0,0.0,73,0.00,,BKN200,0.00,VWS V14.01,2013-11-28 05:55:00,
2013-11-27 22:01:00,43.3,35.6,29.81,SE,127,3.1,3.6,74,0.00,,BKN200,0.00,VWS V14.01,2013-11-28 06:01:00,
2013-11-27 22:06:00,42.6,34.6,29.81,SE,127,3.6,3.6,73,0.00,,BKN200,0.00,VWS V14.01,2013-11-28 06:06:00,
2013-11-27 22:11:00,43.0,35.6,29.81,SE,128,3.6,4.5,75,0.00,,BKN200,0.00,VWS V14.01,2013-11-28 06:11:00,
2013-11-27 22:16:00,43.7,36.3,29.81,SE,127,4.5,4.9,75,0.00,,BKN200,0.00,VWS V14.01,2013-11-28 06:16:00,
2013-11-27 22:21:00,43.5,35.8,29.81,SE,128,4.5,4.5,74,0.00,,BKN200,0.00,VWS V14.01,2013-11-28 06:21:00,
2013-11-27 22:26:00,43.2,35.1,29.81,SE,127,3.6,4.0,73,0.00,,BKN200,0.00,VWS V14.01,2013-11-28 06:26:00,
2013-11-27 22:31:00,43.2,35.5,29.81,SE,128,4.0,4.5,74,0.00,,BKN200,0.00,VWS V14.01,2013-11-28 06:31:00,
2013-11-27 22:37:00,43.3,36.0,29.81,SE,128,3.6,4.5,75,0.00,,BKN200,0.00,VWS V14.01,2013-11-28 06:37:00,
2013-11-27 22:41:00,43.3,35.6,29.81,SE,128,3.6,4.5,74,0.00,,BKN200,0.00,VWS V14.01,2013-11-28 06:41:00,
2013-11-27 22:46:00,43.3,35.6,29.81,SE,127,3.1,4.5,74,0.00,,BKN200,0.00,VWS V14.01,2013-11-28 06:46:00,
2013-11-27 22:51:00,43.3,35.6,29.81,SE,127,4.0,4.5,74,0.00,,BKN200,0.00,VWS V14.01,2013-11-28 06:51:00,
2013-11-27 22:56:00,43.3,35.6,29.81,SE,127,3.1,3.6,74,0.00,,BKN200,0.00,VWS V14.01,2013-11-28 06:56:00,
2013-11-27 23:02:00,43.2,35.1,29.81,SE,128,3.1,3.6,73,0.00,,BKN200,0.00,VWS V14.01,2013-11-28 07:02:00,
2013-11-27 23:07:00,42.8,35.1,29.81,SE,128,4.5,4.5,74,0.00,,BKN200,0.00,VWS V14.01,2013-11-28 07:07:00,
2013-11-27 23:12:00,42.4,35.1,29.81,SE,127,3.6,4.0,75,0.00,,BKN200,0.00,VWS V14.01,2013-11-28 07:12:00,
2013-11-27 23:17:00,42.4,35.4,29.81,SE,128,3.6,4.0,76,0.00,,BKN200,0.00,VWS V14.01,2013-11-28 07:17:00,
2013-11-27 23:22:00,42.3,35.2,29.81,SE,128,4.0,4.5,76,0.00,,BKN200,0.00,VWS V14.01,2013-11-28 07:22:00,
2013-11-27 23:27:00,42.3,35.2,29.81,SE,128,4.0,4.0,76,0.00,,BKN200,0.00,VWS V14.01,2013-11-28 07:27:00,
2013-11-27 23:32:00,42.4,35.4,29.81,SE,127,4.0,4.0,76,0.00,,BKN200,0.00,VWS V14.01,2013-11-28 07:32:00,
2013-11-27 23:37:00,42.3,35.2,29.81,SE,127,4.5,4.5,76,0.00,,BKN200,0.00,VWS V14.01,2013-11-28 07:37:00,
2013-11-27 23:43:00,42.3,35.6,29.81,SE,128,3.1,3.6,77,0.00,,BKN200,0.00,VWS V14.01,2013-11-28 07:43:00,
2013-11-27 23:48:00,41.7,35.0,29.81,SE,127,4.0,4.5,77,0.00,,BKN200,0.00,VWS V14.01,2013-11-28 07:48:00,
2013-11-27 23:53:00,41.9,35.5,29.81,SE,128,4.5,4.5,78,0.00,,BKN200,0.00,VWS V14.01,2013-11-28 07:53:00,
2013-11-27 23:58:00,41.5,35.2,29.81,SE,128,4.0,4.5,78,0.00,,BKN200,0.00,VWS V14.01,2013-11-28 07:58:00,